DW1234 Weather Reports


Display with metric or nautical units.
time (UTC)temp
F
wind
direction
speed
MPH
gust
MPH
rain 1hr
in
rain 24hr
in
rain mn
in
humidity
%
barometer
mb
20220707100221 72 123 2.0 5.0 0.00 0.05 0.01 95 1013.9
20220707100033 72 123 2.0 0.0 0.00 0.00 0.01 95 1011.7
20220707095717 72 123 1.0 6.0 0.00 0.05 0.01 95 1013.9
20220707095237 72 113 2.0 8.0 0.00 0.05 0.01 95 1013.8
20220707094739 72 140 5.0 8.0 0.00 0.05 0.01 95 1013.7
20220707094531 72 109 5.0 0.0 0.00 0.00 0.01 95 1011.3
20220707094238 72 131 4.0 7.0 0.00 0.05 0.01 95 1013.7
20220707093737 72 111 4.0 7.0 0.00 0.05 0.01 95 1013.9
20220707093239 72 113 2.0 7.0 0.00 0.05 0.01 95 1013.9
20220707093014 72 102 4.0 0.0 0.00 0.00 0.01 95 1011.6
20220707092738 72 109 4.0 7.0 0.00 0.05 0.01 95 1013.9
20220707092237 72 109 4.0 7.0 0.00 0.05 0.01 95 1014.0
20220707091737 72 106 5.0 8.0 0.00 0.05 0.01 95 1013.9
20220707091601 72 105 5.0 0.0 0.00 0.00 0.01 95 1011.6
20220707091504 72 105 6.0 0.0 0.00 0.00 0.01 95 1011.5
20220707091236 72 101 3.0 9.0 0.00 0.05 0.01 95 1013.9
20220707090735 72 115 7.0 9.0 0.01 0.05 0.01 95 1013.9
20220707090236 72 81 5.0 8.0 0.01 0.06 0.01 95 1013.9
20220707090054 72 107 4.0 0.0 0.00 0.00 0.01 95 1011.7
20220707085737 72 104 4.0 8.0 0.01 0.06 0.01 95 1013.9
20220707085235 72 120 4.0 8.0 0.01 0.06 0.01 95 1014.0
20220707084734 72 104 4.0 8.0 0.01 0.06 0.01 95 1013.9
20220707084548 72 104 4.0 0.0 0.00 0.00 0.01 95 1011.6
20220707084234 72 101 4.0 8.0 0.01 0.06 0.01 95 1013.8
20220707083733 72 98 2.0 11.0 0.01 0.06 0.01 95 1013.6
20220707083235 72 98 5.0 12.0 0.01 0.06 0.01 95 1013.6
20220707083025 72 101 6.0 0.0 0.00 0.00 0.01 95 1011.1
20220707082734 73 96 5.0 12.0 0.01 0.06 0.01 95 1013.5
20220707082213 73 112 5.0 12.0 0.01 0.06 0.01 95 1013.7
20220707081715 73 110 9.0 12.0 0.01 0.06 0.01 95 1013.6
20220707081528 72 101 6.0 0.0 0.00 0.00 0.01 95 1011.3
20220707081242 73 94 7.0 12.0 0.01 0.06 0.01 95 1013.8
20220707080740 73 106 5.0 11.0 0.00 0.05 0.00 95 1013.8
20220707080239 73 114 5.0 11.0 0.00 0.05 0.00 95 1013.9
20220707080049 72 102 6.0 0.0 0.00 0.00 0.00 95 1011.6
20220707075737 73 101 7.0 11.0 0.00 0.05 0.00 94 1014.0
20220707075239 73 92 6.0 11.0 0.00 0.05 0.00 94 1013.9
20220707074735 73 109 5.0 8.0 0.00 0.05 0.00 94 1014.0
20220707074534 72 115 2.0 0.0 0.00 0.00 0.00 94 1011.8
20220707074231 73 85 2.0 5.0 0.00 0.05 0.00 94 1014.3
20220707073733 73 91 2.0 7.0 0.00 0.05 0.00 95 1014.2
20220707073233 73 70 3.0 7.0 0.00 0.05 0.00 95 1014.1
20220707073024 72 78 3.0 0.0 0.00 0.00 0.00 94 1011.9
20220707072730 73 101 3.0 7.0 0.00 0.05 0.00 94 1014.4
20220707072229 73 111 3.0 7.0 0.00 0.05 0.00 94 1014.7
20220707071730 73 98 1.0 4.0 0.00 0.05 0.00 94 1014.8
20220707071518 72 98 1.0 0.0 0.00 0.00 0.00 94 1012.4
20220707071213 73 98 1.0 4.0 0.00 0.05 0.00 94 1014.7
20220707070716 73 98 2.0 4.0 0.00 0.05 0.00 94 1014.7
20220707070218 73 98 3.0 5.0 0.00 0.06 0.00 94 1014.8
20220707070016 72 98 2.0 0.0 0.00 0.00 0.00 94 1012.7
20220707065715 73 98 1.0 6.0 0.00 0.06 0.00 94 1015.0
20220707065219 73 106 3.0 6.0 0.00 0.06 0.00 94 1014.8
20220707064723 73 106 4.0 6.0 0.00 0.06 0.00 94 1014.7
20220707064509 72 106 2.0 0.0 0.00 0.00 0.00 94 1012.5
20220707064223 73 106 3.0 6.0 0.00 0.06 0.00 94 1014.9
20220707063726 73 108 3.0 6.0 0.00 0.06 0.00 94 1014.8
20220707063224 73 98 3.0 6.0 0.00 0.06 0.00 94 1014.7
20220707063054 72 98 3.0 0.0 0.00 0.00 0.00 94 1012.3
20220707063001 72 98 2.0 0.0 0.00 0.00 0.00 94 1012.4
20220707062722 73 100 3.0 5.0 0.00 0.06 0.00 94 1014.7
20220707062222 73 100 1.0 4.0 0.00 0.06 0.00 94 1014.9
20220707061722 73 100 1.0 5.0 0.00 0.06 0.00 94 1015.0
20220707061543 72 100 1.0 0.0 0.00 0.00 0.00 94 1012.7
20220707061222 73 101 0.0 5.0 0.00 0.06 0.00 94 1014.9
20220707060726 73 35 2.0 4.0 0.00 0.06 0.00 94 1014.9
20220707060225 73 98 0.0 5.0 0.00 0.07 0.00 94 1014.8
20220707060037 72 98 2.0 0.0 0.00 0.00 0.00 94 1012.5
20220707055729 73 103 2.0 5.0 0.00 0.07 0.00 94 1014.8
20220707055226 73 103 3.0 5.0 0.00 0.07 0.00 94 1014.8
20220707054722 73 103 2.0 6.0 0.00 0.07 0.00 94 1014.9
20220707054522 73 101 3.0 0.0 0.00 0.00 0.00 94 1012.6
20220707054222 73 101 4.0 7.0 0.00 0.07 0.00 94 1014.9
20220707053720 73 101 3.0 7.0 0.00 0.07 0.00 94 1014.8
20220707053224 73 101 4.0 7.0 0.00 0.07 0.00 94 1014.7
20220707053014 73 113 4.0 0.0 0.00 0.00 0.00 93 1012.4
20220707052718 73 101 4.0 8.0 0.00 0.07 0.00 93 1014.8
20220707052221 73 111 4.0 8.0 0.00 0.07 0.00 93 1014.7
20220707051723 73 110 4.0 7.0 0.00 0.07 0.00 93 1014.7
20220707051602 73 117 4.0 0.0 0.00 0.00 0.00 93 1012.3
20220707051220 73 109 5.0 7.0 0.00 0.07 0.00 93 1014.6
20220707050718 73 106 3.0 7.0 0.00 0.07 0.00 93 1014.4
20220707050217 73 92 3.0 7.0 0.00 0.08 0.00 93 1014.5
20220707050043 73 51 2.0 0.0 0.00 0.00 0.00 93 1012.1
20220707045715 73 49 3.0 7.0 0.00 0.08 0.07 93 1014.4
20220707045216 73 94 2.0 7.0 0.00 0.08 0.07 93 1014.5
20220707044718 74 103 2.0 7.0 0.00 0.08 0.07 93 1014.5
20220707044527 73 92 3.0 0.0 0.00 0.00 0.07 93 1012.2
20220707044218 74 102 4.0 7.0 0.00 0.08 0.07 93 1014.4
20220707043718 74 103 3.0 7.0 0.00 0.08 0.07 93 1014.4
20220707043219 74 107 3.0 7.0 0.00 0.08 0.07 93 1014.2
20220707043014 73 92 3.0 0.0 0.00 0.00 0.07 93 1011.8
20220707042720 74 101 4.0 6.0 0.00 0.08 0.07 93 1014.2
20220707042227 74 59 3.0 6.0 0.00 0.08 0.07 93 1014.2
20220707041727 74 52 2.0 6.0 0.00 0.08 0.07 93 1014.4
20220707041545 73 42 2.0 0.0 0.00 0.00 0.07 93 1012.1
20220707041229 74 72 3.0 6.0 0.00 0.08 0.07 93 1014.3
20220707040731 74 49 2.0 4.0 0.00 0.08 0.07 92 1014.4
20220707040217 74 59 2.0 4.0 0.00 0.09 0.07 92 1014.5
20220707040058 73 75 1.0 0.0 0.00 0.00 0.07 92 1012.1
20220707035721 74 99 1.0 4.0 0.00 0.09 0.07 92 1014.5
20220707035223 74 99 1.0 5.0 0.00 0.09 0.07 92 1014.5
20220707034724 74 104 1.0 5.0 0.00 0.09 0.07 92 1014.6
20220707034529 73 104 2.0 0.0 0.00 0.00 0.07 92 1012.3
20220707034232 74 104 2.0 5.0 0.00 0.09 0.07 92 1014.7
20220707033717 74 105 1.0 5.0 0.00 0.09 0.07 92 1014.8
20220707033218 74 107 2.0 5.0 0.00 0.09 0.07 92 1014.8
20220707033019 74 107 2.0 0.0 0.00 0.00 0.07 92 1012.6
20220707032716 74 107 2.0 5.0 0.00 0.09 0.07 92 1014.9
20220707032242 74 107 2.0 4.0 0.00 0.09 0.07 92 1015.0
20220707031739 74 107 2.0 5.0 0.00 0.09 0.07 92 1015.1
20220707031506 74 107 2.0 0.0 0.00 0.00 0.07 92 1012.8
20220707031235 74 107 1.0 6.0 0.00 0.09 0.07 92 1015.0
20220707030738 74 104 2.0 6.0 0.00 0.09 0.07 92 1014.9
20220707030227 75 105 1.0 5.0 0.00 0.12 0.07 92 1015.0
20220707030055 74 105 1.0 0.0 0.00 0.00 0.07 92 1012.6
20220707025727 75 105 1.0 5.0 0.00 0.12 0.07 92 1015.1
20220707025227 75 105 0.0 6.0 0.00 0.12 0.07 92 1015.2
20220707024727 75 105 1.0 6.0 0.00 0.12 0.07 92 1015.0
20220707024547 74 105 3.0 0.0 0.00 0.00 0.07 92 1012.7
20220707024231 75 103 3.0 6.0 0.00 0.12 0.07 91 1015.0
20220707023730 75 101 4.0 5.0 0.00 0.12 0.07 91 1014.9
20220707023230 75 101 3.0 5.0 0.00 0.12 0.07 91 1015.1
20220707023027 74 101 3.0 0.0 0.00 0.00 0.07 91 1012.8
20220707022728 75 101 4.0 5.0 0.00 0.12 0.07 91 1015.1
20220707022231 75 101 3.0 6.0 0.00 0.12 0.07 91 1015.2
20220707021736 75 101 4.0 6.0 0.00 0.12 0.07 91 1015.2
20220707021523 74 101 3.0 0.0 0.00 0.00 0.07 91 1012.8
20220707021236 75 101 3.0 5.0 0.00 0.12 0.07 91 1015.2
20220707020731 75 101 2.0 4.0 0.00 0.12 0.07 91 1015.3
20220707020229 75 101 1.0 4.0 0.00 0.20 0.07 91 1015.4
20220707020055 75 101 1.0 0.0 0.00 0.00 0.07 91 1013.1
20220707020004 75 101 1.0 0.0 0.00 0.00 0.07 91 1013.0
20220707015727 75 101 1.0 4.0 0.00 0.20 0.07 91 1015.4
20220707015227 75 101 2.0 6.0 0.00 0.20 0.07 91 1015.3
20220707014729 75 101 3.0 6.0 0.00 0.20 0.07 91 1015.3
20220707014549 75 101 2.0 0.0 0.00 0.00 0.07 91 1012.9
20220707014230 75 101 3.0 5.0 0.00 0.20 0.07 91 1015.1
20220707013729 75 101 1.0 6.0 0.00 0.20 0.07 91 1015.2
20220707013228 75 101 2.0 6.0 0.00 0.20 0.07 91 1015.1
20220707013039 75 101 2.0 0.0 0.00 0.00 0.07 91 1012.7
20220707012729 75 102 3.0 6.0 0.00 0.20 0.07 91 1015.0
20220707012227 75 101 3.0 6.0 0.00 0.20 0.07 91 1014.9
20220707011727 75 101 4.0 5.0 0.00 0.20 0.07 91 1014.7
20220707011524 75 101 2.0 0.0 0.00 0.00 0.07 91 1012.4
20220707011225 75 101 1.0 6.0 0.00 0.20 0.07 91 1014.8
20220707010724 75 101 3.0 8.0 0.00 0.20 0.07 91 1014.6
20220707010223 75 108 5.0 9.0 0.00 0.29 0.07 91 1014.7
20220707010017 75 96 5.0 0.0 0.00 0.00 0.07 91 1012.2
20220707005723 76 105 2.0 8.0 0.00 0.29 0.07 91 1014.4
20220707005227 76 106 6.0 9.0 0.00 0.29 0.07 91 1014.5
20220707004726 76 101 5.0 11.0 0.00 0.29 0.07 91 1014.4
20220707004552 75 96 6.0 0.0 0.00 0.00 0.07 91 1012.1
20220707004505 75 101 5.0 0.0 0.00 0.00 0.07 91 1012.1
20220707004228 76 104 4.0 11.0 0.00 0.29 0.07 91 1014.5
20220707003713 76 107 4.0 9.0 0.00 0.29 0.07 92 1014.4
20220707003218 76 107 6.0 9.0 0.01 0.29 0.07 92 1014.4
20220707003059 76 108 5.0 0.0 0.00 0.00 0.07 92 1012.0
20220707002717 76 104 7.0 9.0 0.01 0.29 0.07 92 1014.5
20220707002216 76 98 5.0 7.0 0.01 0.29 0.07 93 1014.5
20220707001720 76 113 3.0 7.0 0.01 0.29 0.07 92 1014.5
20220707001545 75 106 4.0 0.0 0.00 0.00 0.07 92 1012.2
20220707001220 75 103 3.0 8.0 0.01 0.29 0.07 92 1014.6
20220707000720 75 102 6.0 8.0 0.01 0.29 0.07 92 1014.6
20220707000221 75 108 4.0 7.0 0.01 0.29 0.07 92 1014.6
20220707000036 75 108 4.0 0.0 0.00 0.00 0.07 92 1012.3
20220706235719 75 99 3.0 8.0 0.01 0.29 0.07 92 1014.7
20220706235217 75 106 5.0 8.0 0.01 0.29 0.07 92 1014.7
20220706234717 75 99 3.0 7.0 0.01 0.29 0.07 92 1014.7
20220706234525 75 96 3.0 0.0 0.00 0.00 0.07 92 1012.4
20220706234220 75 87 3.0 8.0 0.01 0.29 0.07 92 1014.7
20220706233723 75 106 3.0 8.0 0.01 0.29 0.07 92 1014.7
20220706233225 75 107 5.0 9.0 0.00 0.28 0.06 92 1014.8
20220706233033 75 98 5.0 0.0 0.00 0.00 0.06 92 1012.7
20220706232729 76 108 6.0 11.0 0.00 0.28 0.06 92 1014.9
20220706232233 75 106 4.0 11.0 0.00 0.28 0.06 92 1015.0
20220706231733 75 103 2.0 6.0 0.00 0.28 0.06 91 1015.0
20220706231509 75 103 4.0 0.0 0.00 0.00 0.06 91 1012.8
20220706231224 75 105 5.0 8.0 0.00 0.28 0.06 91 1015.1
20220706230723 75 98 6.0 8.0 0.00 0.28 0.06 91 1015.1
20220706230224 75 100 4.0 8.0 0.00 0.28 0.06 91 1015.0
20220706230100 75 82 5.0 0.0 0.00 0.00 0.06 91 1012.7
20220706225724 75 95 4.0 12.0 0.00 0.28 0.06 90 1015.0
20220706225222 76 110 7.0 12.0 0.00 0.28 0.06 90 1015.0
20220706224717 76 103 3.0 9.0 0.00 0.28 0.06 90 1015.1
20220706224542 75 103 4.0 0.0 0.00 0.00 0.06 90 1012.8
20220706224215 76 102 5.0 7.0 0.00 0.28 0.06 90 1015.2
20220706223716 76 106 5.0 7.0 0.00 0.28 0.06 90 1015.3
20220706223218 76 104 4.0 7.0 0.00 0.28 0.06 90 1015.3
20220706223029 75 104 4.0 0.0 0.00 0.00 0.06 90 1012.9
20220706222717 76 110 3.0 7.0 0.00 0.28 0.06 90 1015.4
20220706222216 76 103 3.0 7.0 0.00 0.28 0.06 89 1015.3
20220706221719 76 107 4.0 7.0 0.00 0.28 0.06 89 1015.4
20220706221519 76 103 4.0 0.0 0.00 0.00 0.06 89 1013.1
20220706221220 76 119 3.0 6.0 0.00 0.28 0.06 89 1015.5
20220706220720 76 100 4.0 6.0 0.00 0.28 0.06 89 1015.5
20220706220220 76 98 3.0 7.0 0.00 0.28 0.06 89 1015.6
20220706220009 76 98 4.0 0.0 0.00 0.00 0.06 89 1013.3
20220706215721 76 105 4.0 7.0 0.00 0.28 0.06 88 1015.6
20220706215224 77 99 4.0 6.0 0.00 0.28 0.06 88 1015.5
20220706214725 77 107 4.0 8.0 0.00 0.28 0.06 88 1015.5
20220706214554 76 94 4.0 0.0 0.00 0.00 0.06 88 1013.2
20220706214503 76 108 4.0 0.0 0.00 0.00 0.06 88 1013.2
20220706214228 77 101 6.0 8.0 0.00 0.28 0.06 87 1015.7
20220706213732 77 103 3.0 6.0 0.00 0.28 0.06 87 1015.6
20220706213234 77 101 3.0 6.0 0.00 0.28 0.06 87 1015.8
20220706213058 76 105 3.0 0.0 0.00 0.00 0.06 87 1013.5
20220706212726 77 100 4.0 6.0 0.00 0.28 0.06 87 1015.9
20220706212226 77 56 1.0 6.0 0.00 0.28 0.06 86 1015.9
20220706211724 76 94 3.0 6.0 0.00 0.28 0.06 86 1015.7
20220706211541 76 101 2.0 0.0 0.00 0.00 0.06 86 1013.4
20220706211222 77 100 3.0 6.0 0.00 0.28 0.06 86 1015.8
20220706210723 77 98 2.0 5.0 0.00 0.28 0.06 86 1015.8
20220706210223 77 103 2.0 6.0 0.00 0.28 0.06 86 1015.8
20220706210041 76 107 3.0 0.0 0.00 0.00 0.06 86 1013.4
20220706205721 77 109 3.0 7.0 0.00 0.28 0.06 86 1015.8
20220706205222 77 95 3.0 7.0 0.00 0.28 0.06 86 1015.9
20220706204723 77 107 5.0 7.0 0.00 0.28 0.06 86 1015.9
20220706204518 76 105 3.0 0.0 0.00 0.00 0.06 86 1013.5
20220706204220 76 104 1.0 5.0 0.00 0.28 0.06 86 1015.9
20220706203742 76 111 3.0 7.0 0.00 0.28 0.06 86 1015.9
20220706203240 76 101 4.0 7.0 0.00 0.28 0.06 86 1016.0
20220706203005 76 100 3.0 0.0 0.00 0.00 0.06 86 1013.7
20220706202737 76 103 3.0 6.0 0.00 0.28 0.06 86 1015.9
20220706202235 76 97 2.0 5.0 0.00 0.28 0.06 86 1015.9
20220706201735 76 97 2.0 7.0 0.00 0.28 0.06 86 1015.9
20220706201548 76 96 3.0 0.0 0.00 0.00 0.06 86 1013.6
20220706201232 76 93 3.0 7.0 0.00 0.28 0.06 86 1015.9
20220706200729 76 101 3.0 6.0 0.00 0.28 0.06 87 1015.8
20220706200229 76 143 3.0 7.0 0.00 0.28 0.06 87 1015.7
20220706200034 76 96 4.0 0.0 0.00 0.00 0.06 87 1013.5
20220706195727 76 104 3.0 7.0 0.00 0.28 0.06 87 1015.7
20220706195224 76 103 5.0 7.0 0.00 0.28 0.06 87 1015.7
20220706194722 76 107 2.0 7.0 0.00 0.28 0.06 87 1015.7
20220706194528 75 111 3.0 0.0 0.00 0.00 0.06 87 1013.3
20220706194222 76 114 3.0 7.0 0.00 0.28 0.06 87 1015.7
20220706193716 76 112 4.0 7.0 0.00 0.28 0.06 88 1015.6
20220706193242 76 102 4.0 8.0 0.00 0.28 0.06 88 1015.5
20220706193030 75 109 4.0 0.0 0.00 0.00 0.06 88 1013.2
20220706192743 76 115 3.0 11.0 0.00 0.28 0.06 88 1015.6
20220706192239 76 98 7.0 11.0 0.00 0.28 0.06 88 1015.5
20220706191742 76 113 4.0 8.0 0.01 0.28 0.06 88 1015.5
20220706191552 75 123 5.0 0.0 0.00 0.00 0.06 89 1013.2
20220706191227 75 111 6.0 9.0 0.01 0.28 0.06 89 1015.4
20220706190724 75 97 7.0 9.0 0.01 0.28 0.06 89 1015.4
20220706190223 75 107 5.0 8.0 0.01 0.28 0.06 89 1015.4
20220706190043 75 150 5.0 0.0 0.00 0.00 0.06 90 1013.1
20220706185721 75 96 5.0 11.0 0.01 0.28 0.06 90 1015.3
20220706185220 75 106 4.0 11.0 0.01 0.28 0.06 90 1015.3
20220706184718 75 106 4.0 7.0 0.01 0.28 0.06 91 1015.2
20220706184531 74 105 4.0 0.0 0.00 0.00 0.06 91 1012.8
20220706184218 75 115 4.0 7.0 0.01 0.28 0.06 92 1015.1
20220706183737 75 99 3.0 8.0 0.01 0.28 0.06 92 1015.1
20220706183238 75 103 3.0 8.0 0.01 0.28 0.06 93 1015.0
20220706183033 75 98 3.0 0.0 0.00 0.00 0.06 93 1012.6
20220706182738 75 87 1.0 6.0 0.01 0.28 0.06 93 1014.9
20220706182236 75 83 3.0 7.0 0.01 0.28 0.06 93 1014.8
20220706181734 75 96 4.0 7.0 0.00 0.27 0.05 94 1014.7
20220706181520 74 111 4.0 0.0 0.00 0.00 0.05 94 1012.4
20220706181235 75 119 4.0 9.0 0.00 0.27 0.05 94 1014.7
20220706180713 75 106 4.0 11.0 0.00 0.27 0.05 94 1014.6
20220706180216 75 69 5.0 11.0 0.00 0.27 0.05 95 1014.7
20220706180007 74 125 4.0 0.0 0.00 0.00 0.05 95 1012.3
20220706175713 75 98 3.0 7.0 0.00 0.27 0.05 95 1014.6
20220706175240 75 5 3.0 9.0 0.00 0.27 0.05 96 1014.5
20220706174737 74 109 3.0 9.0 0.00 0.27 0.05 96 1014.6
20220706174545 74 117 3.0 0.0 0.00 0.00 0.05 96 1012.2
20220706174238 74 95 2.0 6.0 0.00 0.27 0.05 96 1014.5
20220706173734 74 63 3.0 6.0 0.00 0.27 0.05 96 1014.4
20220706173230 74 107 4.0 8.0 0.00 0.27 0.05 96 1014.2
20220706173033 74 100 4.0 0.0 0.00 0.00 0.05 96 1012.0
20220706172729 74 103 6.0 8.0 0.00 0.27 0.05 96 1014.4
20220706172228 74 96 3.0 6.0 0.00 0.27 0.05 96 1014.2
20220706171723 74 85 2.0 9.0 0.00 0.27 0.05 96 1014.2
20220706171517 73 107 4.0 0.0 0.00 0.00 0.05 96 1011.9
20220706171223 73 40 3.0 11.0 0.00 0.27 0.05 96 1014.2
20220706170719 73 101 7.0 8.0 0.00 0.27 0.05 96 1014.3
20220706170219 73 109 3.0 9.0 0.00 0.27 0.05 96 1014.2
20220706170007 72 113 5.0 0.0 0.00 0.00 0.05 96 1011.8
20220706165720 73 69 5.0 9.0 0.00 0.27 0.05 96 1014.1
20220706165220 72 115 6.0 9.0 0.00 0.27 0.05 96 1014.0
20220706164719 72 94 6.0 8.0 0.00 0.27 0.05 96 1014.2
20220706164558 72 107 4.0 0.0 0.00 0.00 0.05 96 1011.9
20220706164502 72 106 4.0 0.0 0.00 0.00 0.05 96 1011.9
20220706164241 72 80 5.0 8.0 0.00 0.27 0.05 96 1014.2
20220706163734 72 110 4.0 8.0 0.00 0.27 0.05 96 1014.3
20220706163234 72 101 2.0 8.0 0.00 0.27 0.05 96 1014.3
20220706163044 72 97 3.0 0.0 0.00 0.00 0.05 96 1011.9
20220706162733 72 86 1.0 7.0 0.00 0.27 0.05 96 1014.1
20220706162232 72 42 6.0 7.0 0.00 0.27 0.05 96 1013.9
20220706161733 72 29 5.0 7.0 0.00 0.27 0.05 96 1014.1
20220706161534 72 329 1.0 0.0 0.00 0.00 0.05 96 1011.9
20220706161229 72 17 1.0 3.0 0.00 0.27 0.05 96 1014.3
20220706160725 72 16 1.0 3.0 0.00 0.27 0.05 96 1014.6
20220706160226 72 311 1.0 4.0 0.00 0.27 0.05 96 1014.4
20220706160021 72 303 2.0 0.0 0.00 0.00 0.05 96 1012.5
20220706155722 72 254 3.0 5.0 0.00 0.27 0.05 96 1014.7
20220706155221 72 242 3.0 6.0 0.00 0.27 0.05 95 1013.9
20220706154742 72 24 4.0 8.0 0.00 0.27 0.05 95 1013.5
20220706154557 72 289 3.0 0.0 0.00 0.00 0.05 95 1011.2
20220706154239 72 36 5.0 8.0 0.01 0.27 0.05 95 1013.5
20220706153732 72 105 1.0 7.0 0.01 0.27 0.05 95 1013.1
20220706153230 72 109 4.0 7.0 0.01 0.27 0.05 96 1013.0
20220706153040 71 102 3.0 0.0 0.00 0.00 0.05 96 1010.7
20220706152729 72 82 3.0 5.0 0.01 0.27 0.05 95 1013.1
20220706152225 72 178 2.0 4.0 0.01 0.27 0.05 95 1013.4
20220706151722 72 215 0.0 3.0 0.01 0.27 0.05 96 1013.5
20220706151525 71 215 0.0 0.0 0.00 0.00 0.05 96 1011.2
20220706151224 72 214 0.0 1.0 0.01 0.27 0.05 95 1013.6
20220706150721 72 214 0.0 3.0 0.01 0.27 0.05 95 1013.4
20220706150219 71 214 1.0 4.0 0.01 0.27 0.05 95 1013.5
20220706150013 71 214 2.0 0.0 0.00 0.00 0.05 95 1011.1
20220706145720 71 215 2.0 4.0 0.01 0.27 0.05 95 1013.1
20220706145220 71 238 2.0 3.0 0.01 0.27 0.05 95 1012.9
20220706144717 71 283 1.0 3.0 0.01 0.27 0.05 95 1012.9
20220706144553 71 283 1.0 0.0 0.00 0.00 0.05 95 1010.5
20220706144242 71 283 2.0 4.0 0.00 0.26 0.04 95 1013.0
20220706143734 71 159 2.0 4.0 0.00 0.26 0.04 95 1013.2
20220706143234 71 159 2.0 4.0 0.00 0.26 0.04 95 1013.4
20220706143046 71 159 0.0 0.0 0.00 0.00 0.04 95 1011.1
20220706142730 71 159 1.0 4.0 0.00 0.26 0.04 95 1013.4
20220706142231 71 159 0.0 4.0 0.00 0.26 0.04 95 1013.4
20220706141734 71 159 0.0 1.0 0.00 0.26 0.04 95 1013.5
20220706141539 71 159 0.0 0.0 0.00 0.00 0.04 95 1011.1
20220706141234 71 159 0.0 1.0 0.00 0.26 0.04 95 1013.6
20220706140731 71 159 0.0 1.0 0.00 0.26 0.04 95 1013.6
20220706140233 71 159 0.0 2.0 0.00 0.27 0.04 95 1013.5
20220706140035 71 159 0.0 0.0 0.00 0.00 0.04 95 1011.1
20220706135732 71 159 0.0 2.0 0.00 0.27 0.04 95 1013.4
20220706135230 71 159 0.0 2.0 0.00 0.27 0.04 95 1013.5
20220706134727 71 159 0.0 6.0 0.00 0.27 0.04 95 1013.5
20220706134518 70 159 3.0 0.0 0.00 0.00 0.04 95 1011.2
20220706134222 71 159 3.0 6.0 0.00 0.27 0.04 95 1013.6
20220706133718 71 103 3.0 6.0 0.00 0.27 0.04 95 1013.4
20220706133238 71 106 3.0 6.0 0.00 0.27 0.04 95 1013.4
20220706133053 70 106 3.0 0.0 0.00 0.00 0.04 95 1011.2
20220706132735 71 231 1.0 4.0 0.00 0.27 0.04 94 1013.6
20220706132234 71 231 3.0 4.0 0.00 0.27 0.04 94 1013.6
20220706131731 70 242 3.0 4.0 0.00 0.27 0.04 95 1013.4
20220706131530 70 242 2.0 0.0 0.00 0.00 0.04 95 1011.0
20220706131228 70 257 1.0 4.0 0.00 0.27 0.04 94 1013.3
20220706130726 70 92 1.0 4.0 0.00 0.27 0.04 94 1013.2
20220706130224 70 92 2.0 8.0 0.00 0.27 0.04 94 1013.0
20220706130016 70 100 3.0 0.0 0.00 0.00 0.04 94 1010.6
20220706125722 70 103 2.0 8.0 0.00 0.27 0.04 94 1012.8
20220706125223 70 77 4.0 11.0 0.00 0.27 0.04 94 1012.7
20220706124723 70 57 6.0 14.0 0.00 0.27 0.04 94 1012.7
20220706124559 70 44 7.0 0.0 0.00 0.00 0.04 94 1010.4
20220706124501 70 40 7.0 0.0 0.00 0.00 0.04 94 1010.3
20220706124219 70 33 8.0 14.0 0.00 0.27 0.04 94 1012.6
20220706123716 70 13 7.0 14.0 0.00 0.27 0.04 94 1012.7
20220706123239 70 46 7.0 15.0 0.00 0.27 0.04 94 1012.9
20220706123040 70 44 7.0 0.0 0.00 0.00 0.04 94 1010.7
20220706122735 70 47 9.0 15.0 0.00 0.27 0.04 94 1013.0
20220706122233 71 50 7.0 11.0 0.00 0.27 0.04 94 1013.1
20220706121733 70 39 7.0 13.0 0.00 0.27 0.04 94 1013.3
20220706121520 70 57 6.0 0.0 0.00 0.00 0.04 94 1011.2
20220706121229 71 55 6.0 13.0 0.00 0.27 0.04 94 1013.7
20220706120728 71 55 5.0 12.0 0.00 0.27 0.04 93 1013.8
20220706120225 71 22 6.0 14.0 0.01 0.27 0.04 93 1014.0
20220706120002 70 40 10.0 0.0 0.00 0.00 0.04 94 1011.7
20220706115721 71 39 9.0 18.0 0.01 0.27 0.04 93 1014.0
20220706115221 71 53 13.0 21.0 0.01 0.27 0.04 93 1014.0
20220706114719 71 35 9.0 21.0 0.01 0.27 0.04 93 1014.1
20220706114543 71 46 9.0 0.0 0.00 0.00 0.04 93 1011.8
20220706114239 72 28 8.0 18.0 0.01 0.27 0.04 93 1014.4
20220706113734 72 33 8.0 13.0 0.01 0.27 0.04 93 1014.6
20220706113230 72 38 6.0 11.0 0.01 0.27 0.04 93 1014.6
20220706113031 72 24 6.0 0.0 0.00 0.00 0.04 93 1012.3
20220706112728 72 37 6.0 11.0 0.01 0.27 0.04 93 1014.6
20220706112229 72 46 6.0 9.0 0.01 0.27 0.04 93 1014.8
20220706111726 72 17 3.0 5.0 0.01 0.27 0.04 93 1014.9
20220706111519 72 18 2.0 0.0 0.00 0.00 0.04 93 1012.7
20220706111223 72 17 3.0 5.0 0.01 0.27 0.04 93 1015.1
20220706110722 72 301 1.0 4.0 0.01 0.27 0.04 93 1015.3
20220706110220 72 307 2.0 5.0 0.00 0.26 0.03 93 1015.4
20220706110005 72 323 2.0 0.0 0.00 0.00 0.03 93 1013.1
20220706105717 72 280 1.0 5.0 0.00 0.26 0.03 93 1015.5
20220706105217 72 325 2.0 5.0 0.00 0.26 0.03 93 1015.5
20220706104741 72 247 1.0 7.0 0.00 0.26 0.03 93 1015.2
20220706104551 72 238 3.0 0.0 0.00 0.00 0.03 93 1012.9
20220706104234 72 241 3.0 7.0 0.00 0.26 0.03 93 1014.9
20220706103726 72 244 4.0 7.0 0.00 0.26 0.03 93 1014.7
20220706103223 72 217 5.0 7.0 0.00 0.26 0.03 92 1014.5
20220706103032 72 208 3.0 0.0 0.00 0.00 0.03 92 1012.2
20220706102719 72 130 3.0 5.0 0.00 0.26 0.03 92 1014.4
20220706102219 72 88 2.0 3.0 0.00 0.26 0.03 92 1014.1
20220706101717 72 86 2.0 6.0 0.00 0.26 0.03 92 1013.7
20220706101525 72 57 2.0 0.0 0.00 0.00 0.03 92 1011.2
20220706101240 72 54 2.0 6.0 0.00 0.26 0.03 92 1013.5
20220706100739 72 40 3.0 8.0 0.00 0.26 0.03 92 1013.5